When you browse on this site, cookies collect data to enhance your experience and personalize the content and advertising you see.
Visit our Privacy Policy to learn more. By continuing to use the site, you agree to this use of cookies and data.
  • în România
  • Lista ţărilor
  • Pe 7 zile
  • Temperatura apei
  • Meteo pe hartă
  • Widget-uri
  • user-avatar
    Intrare

    Meteo pe oră la La-Plata

    Astăzi, 1 Iunie, Luni

    Timp Temperatura Precipitaţii Vânt Presiune Umiditate
    00:00 +7°C° 0 mm 4 m/s 763 mmHg 72%
    01:00 +6°C° 0 mm 4 m/s 764 mmHg 78%
    02:00 +6°C° 0 mm 4 m/s 764 mmHg 85%
    03:00 +5°C° 0 mm 4 m/s 764 mmHg 87%
    04:00 +5°C° 0 mm 4 m/s 764 mmHg 89%
    05:00 +4°C° 0 mm 4 m/s 764 mmHg 91%
    06:00 +5°C° 0 mm 4 m/s 764 mmHg 89%
    07:00 +5°C° 0 mm 4 m/s 765 mmHg 88%
    08:00 +5°C° 0 mm 4 m/s 766 mmHg 86%
    09:00 +7°C° 0 mm 4 m/s 765 mmHg 78%
    10:00 +10°C° 0 mm 4 m/s 765 mmHg 70%
    11:00 +12°C° 0 mm 4 m/s 765 mmHg 63%
    12:00 +12°C° 0 mm 4 m/s 765 mmHg 60%
    13:00 +13°C° 0 mm 3 m/s 765 mmHg 57%
    14:00 +13°C° 0 mm 3 m/s 765 mmHg 53%
    15:00 +13°C° 0 mm 2 m/s 764 mmHg 58%
    16:00 +12°C° 0 mm 2 m/s 764 mmHg 63%
    17:00 +10°C° 0 mm 2 m/s 764 mmHg 68%
    18:00 +10°C° 0 mm 1 m/s 765 mmHg 71%
    19:00 +9°C° 0 mm 1 m/s 765 mmHg 74%
    20:00 +9°C° 0 mm 1 m/s 765 mmHg 77%
    21:00 +8°C° 0 mm 1 m/s 765 mmHg 78%
    22:00 +7°C° 0 mm 0 m/s 765 mmHg 79%
    23:00 +7°C° 0 mm 0 m/s 765 mmHg 80%

    Mâine, 2 Iunie, Marţi

    Timp Temperatura Precipitaţii Vânt Presiune Umiditate
    00:00 +7°C° 0 mm 0 m/s 765 mmHg 80%
    01:00 +7°C° 0 mm 0 m/s 765 mmHg 80%
    02:00 +7°C° 0 mm 0 m/s 765 mmHg 80%
    03:00 +8°C° 0 mm 1 m/s 765 mmHg 80%
    04:00 +7°C° 0 mm 1 m/s 764 mmHg 80%
    05:00 +6°C° 0 mm 2 m/s 764 mmHg 80%
    06:00 +7°C° 0 mm 2 m/s 764 mmHg 78%
    07:00 +7°C° 0 mm 2 m/s 765 mmHg 75%
    08:00 +8°C° 0 mm 2 m/s 765 mmHg 73%
    09:00 +9°C° 0 mm 3 m/s 765 mmHg 66%
    10:00 +11°C° 0 mm 3 m/s 764 mmHg 59%
    11:00 +13°C° 0 mm 4 m/s 764 mmHg 52%
    12:00 +14°C° 0 mm 4 m/s 763 mmHg 50%
    13:00 +14°C° 0 mm 4 m/s 763 mmHg 48%
    14:00 +14°C° 0 mm 4 m/s 762 mmHg 46%
    15:00 +13°C° 0 mm 4 m/s 762 mmHg 51%
    16:00 +12°C° 0 mm 4 m/s 762 mmHg 56%
    17:00 +11°C° 0 mm 4 m/s 762 mmHg 61%
    18:00 +11°C° 0 mm 4 m/s 762 mmHg 63%
    19:00 +10°C° 0 mm 4 m/s 762 mmHg 65%
    20:00 +10°C° 0 mm 4 m/s 763 mmHg 67%
    21:00 +10°C° 0 mm 4 m/s 763 mmHg 68%
    22:00 +10°C° 0 mm 3 m/s 763 mmHg 69%
    23:00 +9°C° 0 mm 3 m/s 763 mmHg 71%

    Poimâine, 3 Iunie, Miercuri

    Timp Temperatura Precipitaţii Vânt Presiune Umiditate
    00:00 +9°C° 0 mm 3 m/s 763 mmHg 73%
    01:00 +9°C° 0 mm 3 m/s 763 mmHg 75%
    02:00 +9°C° 0 mm 3 m/s 763 mmHg 77%
    03:00 +9°C° 0 mm 3 m/s 764 mmHg 77%
    04:00 +9°C° 0 mm 2 m/s 764 mmHg 77%
    05:00 +9°C° 0 mm 2 m/s 764 mmHg 77%
    06:00 +9°C° 0 mm 2 m/s 764 mmHg 76%
    07:00 +10°C° 0 mm 1 m/s 765 mmHg 76%
    08:00 +10°C° 0 mm 1 m/s 766 mmHg 75%
    09:00 +12°C° 0 mm 1 m/s 766 mmHg 69%
    10:00 +13°C° 0 mm 1 m/s 766 mmHg 62%
    11:00 +15°C° 0 mm 1 m/s 767 mmHg 55%
    12:00 +15°C° 0 mm 1 m/s 767 mmHg 53%
    13:00 +16°C° 0 mm 1 m/s 766 mmHg 51%
    14:00 +16°C° 0 mm 1 m/s 766 mmHg 48%
    15:00 +15°C° 0 mm 1 m/s 766 mmHg 53%
    16:00 +14°C° 0 mm 1 m/s 766 mmHg 59%
    17:00 +12°C° 0 mm 2 m/s 767 mmHg 64%
    18:00 +12°C° 0 mm 2 m/s 767 mmHg 67%
    19:00 +10°C° 0 mm 2 m/s 767 mmHg 70%
    20:00 +10°C° 0 mm 3 m/s 767 mmHg 73%
    21:00 +10°C° 0 mm 3 m/s 767 mmHg 76%
    22:00 +9°C° 0 mm 3 m/s 768 mmHg 79%
    23:00 +9°C° 0 mm 3 m/s 768 mmHg 82%

    4 Iunie, Joi

    Timp Temperatura Precipitaţii Vânt Presiune Umiditate
    00:00 +9°C° 0 mm 2 m/s 768 mmHg 84%
    01:00 +9°C° 0 mm 2 m/s 768 mmHg 85%
    02:00 +9°C° 0 mm 2 m/s 768 mmHg 86%
    03:00 +8°C° 0 mm 2 m/s 768 mmHg 87%
    04:00 +8°C° 0 mm 2 m/s 767 mmHg 88%
    05:00 +8°C° 0 mm 2 m/s 767 mmHg 88%
    06:00 +8°C° 0 mm 2 m/s 768 mmHg 86%
    07:00 +9°C° 0 mm 2 m/s 768 mmHg 84%
    08:00 +9°C° 0 mm 2 m/s 768 mmHg 82%
    09:00 +12°C° 0 mm 2 m/s 768 mmHg 74%
    10:00 +14°C° 0 mm 2 m/s 768 mmHg 67%
    11:00 +16°C° 0 mm 2 m/s 768 mmHg 60%
    12:00 +16°C° 0 mm 3 m/s 767 mmHg 58%
    13:00 +16°C° 0 mm 3 m/s 767 mmHg 57%
    14:00 +17°C° 0 mm 4 m/s 766 mmHg 55%
    15:00 +14°C° 0 mm 4 m/s 766 mmHg 61%
    16:00 +12°C° 0 mm 4 m/s 766 mmHg 67%
    17:00 +11°C° 0 mm 4 m/s 766 mmHg 73%
    18:00 +10°C° 0 mm 3 m/s 766 mmHg 77%
    19:00 +10°C° 0 mm 3 m/s 766 mmHg 80%
    20:00 +9°C° 0 mm 3 m/s 766 mmHg 84%
    21:00 +8°C° 0 mm 4 m/s 766 mmHg 85%
    22:00 +8°C° 0 mm 4 m/s 766 mmHg 87%
    23:00 +8°C° 0 mm 4 m/s 766 mmHg 88%

    5 Iunie, Vineri

    Timp Temperatura Precipitaţii Vânt Presiune Umiditate
    00:00 +10°C° 0 mm 4 m/s 765 mmHg 89%
    01:00 +10°C° 0 mm 4 m/s 765 mmHg 90%
    02:00 +10°C° 0 mm 4 m/s 764 mmHg 90%
    03:00 +10°C° 0 mm 4 m/s 764 mmHg 88%
    04:00 +11°C° 0 mm 4 m/s 764 mmHg 86%
    05:00 +11°C° 0 mm 4 m/s 764 mmHg 85%
    06:00 +10°C° 0 mm 5 m/s 764 mmHg 85%
    07:00 +12°C° 0 mm 5 m/s 763 mmHg 85%
    08:00 +12°C° 0 mm 5 m/s 763 mmHg 85%
    09:00 +13°C° 0 mm 5 m/s 763 mmHg 80%
    10:00 +14°C° 0 mm 6 m/s 763 mmHg 76%
    11:00 +16°C° 0 mm 6 m/s 763 mmHg 72%
    12:00 +16°C° 0 mm 7 m/s 762 mmHg 71%
    13:00 +16°C° 0 mm 7 m/s 762 mmHg 69%
    14:00 +17°C° 0 mm 7 m/s 761 mmHg 68%
    15:00 +16°C° 0 mm 7 m/s 761 mmHg 73%
    16:00 +15°C° 0 mm 7 m/s 760 mmHg 79%
    17:00 +14°C° 0 mm 7 m/s 760 mmHg 84%
    18:00 +14°C° 0.1 mm 7 m/s 760 mmHg 84%
    19:00 +14°C° 0.1 mm 7 m/s 760 mmHg 84%
    20:00 +13°C° 0.1 mm 8 m/s 760 mmHg 84%
    21:00 +13°C° 0.3 mm 8 m/s 760 mmHg 85%
    22:00 +14°C° 0.3 mm 7 m/s 759 mmHg 86%
    23:00 +14°C° 0.3 mm 7 m/s 759 mmHg 87%

    6 Iunie, Sâmbătă

    Timp Temperatura Precipitaţii Vânt Presiune Umiditate
    00:00 +14°C° 0 mm 7 m/s 759 mmHg 86%
    01:00 +14°C° 0 mm 7 m/s 759 mmHg 86%
    02:00 +14°C° 0 mm 7 m/s 758 mmHg 86%
    03:00 +14°C° 0 mm 6 m/s 758 mmHg 88%
    04:00 +13°C° 0 mm 6 m/s 758 mmHg 91%
    05:00 +13°C° 0 mm 6 m/s 758 mmHg 93%
    06:00 +13°C° 0 mm 6 m/s 758 mmHg 92%
    07:00 +13°C° 0 mm 6 m/s 758 mmHg 91%
    08:00 +13°C° 0 mm 6 m/s 758 mmHg 90%
    09:00 +14°C° 0 mm 6 m/s 758 mmHg 85%
    10:00 +16°C° 0 mm 6 m/s 758 mmHg 81%
    11:00 +17°C° 0 mm 6 m/s 758 mmHg 76%
    12:00 +17°C° 0.1 mm 6 m/s 758 mmHg 75%
    13:00 +17°C° 0.1 mm 6 m/s 757 mmHg 75%
    14:00 +17°C° 0.1 mm 6 m/s 757 mmHg 75%
    15:00 +17°C° 0 mm 5 m/s 757 mmHg 79%
    16:00 +17°C° 0 mm 4 m/s 757 mmHg 84%
    17:00 +16°C° 0 mm 3 m/s 757 mmHg 89%
    18:00 +14°C° 0 mm 3 m/s 757 mmHg 91%
    19:00 +14°C° 0 mm 3 m/s 758 mmHg 92%
    20:00 +13°C° 0 mm 3 m/s 758 mmHg 94%
    21:00 +13°C° 0 mm 3 m/s 758 mmHg 94%
    22:00 +13°C° 0 mm 4 m/s 759 mmHg 93%
    23:00 +13°C° 0 mm 4 m/s 759 mmHg 93%
    Arată mai mult